TimeEST,TemperatureF,Dew PointF,Humidity,Sea Level PressureIn,VisibilityMPH,Wind Direction,Wind SpeedMPH,Gust SpeedMPH,PrecipitationIn,Events,Conditions,WindDirDegrees,DateUTC
12:15 AM,28.4,21.2,74,30.02,10.0,NW,3.5,-,N/A,,Clear,310,2013-02-17 05:15:00
12:35 AM,28.4,21.2,74,30.02,10.0,WNW,4.6,-,N/A,,Clear,300,2013-02-17 05:35:00
12:55 AM,28.4,21.2,74,30.02,10.0,Calm,Calm,-,N/A,,Scattered Clouds,0,2013-02-17 05:55:00
1:15 AM,28.4,21.2,74,30.03,10.0,Calm,Calm,-,N/A,,Scattered Clouds,0,2013-02-17 06:15:00
1:35 AM,28.4,21.2,74,30.03,10.0,Calm,Calm,-,N/A,,Scattered Clouds,0,2013-02-17 06:35:00
1:55 AM,28.4,19.4,69,30.03,10.0,WNW,3.5,-,N/A,,Clear,290,2013-02-17 06:55:00
2:15 AM,28.4,19.4,69,30.03,10.0,Calm,Calm,-,N/A,,Clear,0,2013-02-17 07:15:00
2:35 AM,28.4,19.4,69,30.03,10.0,Calm,Calm,-,N/A,,Clear,0,2013-02-17 07:35:00
2:55 AM,26.6,19.4,74,30.03,10.0,Calm,Calm,-,N/A,,Clear,0,2013-02-17 07:55:00
3:15 AM,26.6,19.4,74,30.04,10.0,Calm,Calm,-,N/A,,Clear,0,2013-02-17 08:15:00
3:35 AM,26.6,17.6,69,30.04,10.0,WNW,4.6,-,N/A,,Clear,290,2013-02-17 08:35:00
3:55 AM,28.4,14.0,55,30.05,10.0,Calm,Calm,-,N/A,,Clear,0,2013-02-17 08:55:00
4:15 AM,26.6,14.0,59,30.05,10.0,WNW,4.6,-,N/A,,Clear,290,2013-02-17 09:15:00
4:35 AM,26.6,14.0,59,30.06,10.0,West,4.6,-,N/A,,Clear,280,2013-02-17 09:35:00
4:55 AM,26.6,14.0,59,30.07,10.0,Calm,Calm,-,N/A,,Clear,0,2013-02-17 09:55:00
5:15 AM,28.4,14.0,55,30.08,10.0,West,4.6,-,N/A,,Clear,270,2013-02-17 10:15:00
5:35 AM,26.6,14.0,59,30.09,10.0,West,4.6,-,N/A,,Clear,270,2013-02-17 10:35:00
5:55 AM,26.6,12.2,55,30.09,10.0,West,4.6,-,N/A,,Clear,280,2013-02-17 10:55:00
6:15 AM,26.6,10.4,51,30.09,10.0,WNW,9.2,-,N/A,,Clear,290,2013-02-17 11:15:00
6:35 AM,26.6,10.4,51,30.11,10.0,West,4.6,-,N/A,,Clear,280,2013-02-17 11:35:00
6:55 AM,26.6,10.4,51,30.11,10.0,West,8.1,-,N/A,,Clear,280,2013-02-17 11:55:00
7:55 AM,26.6,10.4,51,30.14,10.0,WNW,6.9,-,N/A,,Clear,290,2013-02-17 12:55:00
8:55 AM,28.4,10.4,47,30.16,10.0,NW,5.8,-,N/A,,Clear,320,2013-02-17 13:55:00
9:55 AM,30.2,10.4,44,30.17,10.0,West,9.2,-,N/A,,Clear,280,2013-02-17 14:55:00
10:55 AM,33.8,10.4,38,30.17,10.0,WNW,10.4,18.4,N/A,,Clear,300,2013-02-17 15:55:00
11:55 AM,35.6,10.4,35,30.17,10.0,NW,16.1,21.9,N/A,,Clear,320,2013-02-17 16:55:00
12:55 PM,37.4,10.4,33,30.16,10.0,WNW,11.5,20.7,N/A,,Partly Cloudy,300,2013-02-17 17:55:00
1:55 PM,39.2,8.6,28,30.15,10.0,WNW,8.1,-,N/A,,Partly Cloudy,300,2013-02-17 18:55:00
2:55 PM,41.0,8.6,26,30.15,10.0,WNW,5.8,16.1,N/A,,Clear,300,2013-02-17 19:55:00
3:55 PM,41.0,6.8,24,30.16,10.0,WNW,13.8,18.4,N/A,,Clear,300,2013-02-17 20:55:00
4:55 PM,42.8,5.0,21,30.16,10.0,WNW,13.8,19.6,N/A,,Clear,300,2013-02-17 21:55:00
5:55 PM,39.2,5.0,24,30.18,10.0,WNW,8.1,13.8,N/A,,Clear,300,2013-02-17 22:55:00
6:55 PM,37.4,6.8,28,30.21,10.0,Calm,Calm,-,N/A,,Clear,0,2013-02-17 23:55:00
7:55 PM,33.8,8.6,35,30.22,10.0,Calm,Calm,-,N/A,,Clear,0,2013-02-18 00:55:00
8:15 PM,32.0,10.4,41,30.23,10.0,Calm,Calm,-,N/A,,Clear,0,2013-02-18 01:15:00
8:35 PM,30.2,12.2,47,30.24,10.0,Calm,Calm,-,N/A,,Clear,0,2013-02-18 01:35:00
8:55 PM,30.2,14.0,51,30.24,10.0,SW,3.5,-,N/A,,Clear,220,2013-02-18 01:55:00
9:15 PM,30.2,12.2,47,30.24,10.0,Calm,Calm,-,N/A,,Clear,0,2013-02-18 02:15:00
9:35 PM,30.2,12.2,47,30.25,10.0,Calm,Calm,-,N/A,,Clear,0,2013-02-18 02:35:00
9:55 PM,32.0,8.6,38,30.26,10.0,Calm,Calm,-,N/A,,Clear,0,2013-02-18 02:55:00
10:15 PM,32.0,10.4,41,30.26,10.0,Calm,Calm,-,N/A,,Clear,0,2013-02-18 03:15:00
10:35 PM,28.4,12.2,51,30.27,10.0,Calm,Calm,-,N/A,,Clear,0,2013-02-18 03:35:00
10:55 PM,26.6,12.2,55,30.27,10.0,Calm,Calm,-,N/A,,Clear,0,2013-02-18 03:55:00
11:15 PM,28.4,14.0,55,30.28,10.0,Calm,Calm,-,N/A,,Clear,0,2013-02-18 04:15:00
11:35 PM,26.6,14.0,59,30.28,10.0,Calm,Calm,-,N/A,,Clear,0,2013-02-18 04:35:00
11:55 PM,28.4,14.0,55,30.28,10.0,Calm,Calm,-,N/A,,Clear,0,2013-02-18 04:55:00